Terminal Aerodrome Forecast
Issued by NWS

Home | Current Version | Previous Version | Text Only | Print | Product List | Glossary Off
Versions: 1 2 3 4 5 6 7 8 9 10 11 12 13 14 15 16 17 18 19 20 21 22 23 24 25 26 27 28 29 30 31 32 33 34 35 36 37 38

000
FTUS42 KMHX 241700
TAFPGV
TAF
KPGV 241720Z 2418/2518 19010G18KT 4SM RA BR OVC010
      TEMPO 2418/2420 2SM +RA BKN007
     FM250300 21010G15KT P6SM OVC008
     FM250900 25010KT P6SM OVC015
     FM251100 25008KT P6SM OVC050
      AMD LTD TO CLD VIS AND WIND=

USA.gov is the U.S. government's official web portal to all federal, state and local government web resources and services.